Flag for U.S.A. Weather past 2 weeks in West Covina, California, U.S.A.

Now
58 °F

Overcast.


Feels Like: 58 °F
Forecast: 52 / 69 °F
Wind: No wind

Location: Fullerton Municipal Airport

Current Time: Jan 27, 2015 at 4:54:05 AM

Latest Report: Jan 27, 2015 at 3:53 AM


Visibility: 9 mi

Pressure: 30.11 "Hg

Humidity: 84%

Dew point: 53 °F

Location of West CovinaLocation

Historic Weather in West Covina — Graph

°F

West Covina temperature yesterday

Maximum temperature yesterday: 77 °F (at 11:53 AM)
Minimum temperature yesterday: 57 °F (at 7:53 PM)
Average temperature yesterday: 65 °F

Past Weeks' High & Low Weather Summary

 TemperatureHumidityPressure
High84 °F (Jan 24, 2:53 PM)96% (Jan 12, 4:53 AM)30.24 "Hg (Jan 12, 4:53 AM)
Low46 °F (Jan 16, 5:53 AM)9% (Jan 23, 2:53 PM)29.89 "Hg (Jan 20, 2:53 PM)
Average61 °F52%30.09 "Hg
* Reported Jan 12 2:53 AM — Jan 27 2:53 AM, West Covina, Weather by CustomWeather, © 2014

Note: Actual official high and low records may vary slightly from our data, if they occured in-between our weather recording intervals... More about our weather records

Advertising

West Covina weather history for previous 24 hours

 ConditionsComfort  
Time TempWeatherWind HumidityBarometerVisibility
2:53 AM
Jan 27
57 °FOvercast.No wind87%30.11 "Hg10 mi
1:53 AM57 °FFog.No wind87%30.10 "Hg6 mi
12:53 AM57 °FOvercast.No wind87%30.10 "Hg9 mi
11:53 PM
Jan 26
57 °FOvercast.No wind87%30.10 "Hg10 mi
10:53 PM57 °FMostly cloudy.No wind87%30.10 "Hg10 mi
9:53 PM57 °FMostly cloudy.No wind83%30.09 "Hg10 mi
8:53 PM58 °FMostly cloudy.3 mph84%30.09 "Hg10 mi
7:53 PM57 °FLight rain. Overcast.3 mph87%30.09 "Hg8 mi
6:53 PM58 °FLight rain. Overcast.5 mph84%30.08 "Hg5 mi
5:53 PM59 °FLight rain. Overcast.3 mph81%30.05 "Hg10 mi
4:53 PM60 °FLight rain. Mostly cloudy.No wind75%30.05 "Hg8 mi
3:53 PM66 °FLight rain. Mostly cloudy.9 mph49%30.04 "Hg10 mi
2:53 PM70 °FOvercast.9 mph35%30.01 "Hg10 mi
1:53 PM75 °FPartly sunny.13 mph22%29.96 "Hg10 mi
12:53 PM77 °FPartly sunny.5 mph20%29.97 "Hg10 mi
11:53 AM77 °FScattered clouds.8 mph22%29.98 "Hg10 mi
10:53 AM76 °FSunny.5 mph24%30.00 "Hg10 mi
9:53 AM75 °FScattered clouds.No wind25%30.01 "Hg10 mi
8:53 AM70 °FPassing clouds.7 mph28%29.99 "Hg10 mi
7:53 AM68 °FOvercast.7 mph30%29.97 "Hg10 mi
6:53 AM64 °FMore clouds than sun.No wind35%29.97 "Hg10 mi
5:53 AM65 °FPassing clouds.5 mph32%29.96 "Hg10 mi
4:53 AM62 °FPassing clouds.No wind39%29.97 "Hg10 mi
Weather by CustomWeather, © 2014

See weather overviewHow to use our weather pages